Location: Bittkow
(50.3000°N, 19.0000°E)
Time: 00:52:34
(UTC+00:00)

Cosmos 192 - Pass Details

Date: 19 September 2020
Orbit: 700 x 714 km, 74.0° (Epoch: 30 October)

Event Time Altitude Azimuth Distance (km) Brightness Sun altitude
Exits shadow 02:35:08 19° 194° (SSW) 1,647 5.9 -17.9°
Maximum altitude 02:38:39 75° 111° (ESE) 732 4.4 -17.4°
Drops below altitude 10° 02:43:34 10° 27° (NNE) 2,186 7.6 -16.7°
Sets 02:45:55 0° 26° (NNE) 3,111 8.4 -16.3°
